User: anonymous   Login
Location: Banksville Park
(38.5557°N, 75.1182°W)
Time: 16:26:21
(UTC+00:00)
Language:

ASTEX 1 - Orbit

View from above orbital plane
View from above orbital plane
View from above satellite
View from above satellite

Ground track
Ground track

The orbit data is extracted from the following two-line orbital elements,

1 05560U 71089A   21173.89701994  .00000079  00000-0  21475-4 0  9991
2 05560  92.7186 316.2414 0018281 119.3731 240.9302 14.48136929613093
Epoch (UTC): 22 June 2021 21:31:42
Eccentricity: 0.0018281
inclination: 92.7186°
perigee height: 719 km
apogee height: 745 km
right ascension of ascending node: 316.2414°
argument of perigee: 119.3731°
revolutions per day: 14.48136929
mean anomaly at epoch: 240.9302°
orbit number at epoch: 61309

The dashed part of the orbit path shows where the satellite is in the earth's shadow,  

DLR